Location: Hohenfelde
(53.8441°N, 9.6220°E)
Time: 12:25:42
(UTC+00:00)

Cosmos 1802 Rocket - Pass Details

Date: 14 July 2020
Orbit: 954 x 1012 km, 82.9° (Epoch: 12 August)

Event Time Altitude Azimuth Distance (km) Brightness Sun altitude
Exits shadow 01:03:01 13° 184° (S) 2,524 5.6 -11.8°
Maximum altitude 01:08:44 82° 99° (E) 1,026 4.1 -11.4°
Drops below altitude 10° 01:15:13 10° 12° (NNE) 2,807 7.8 -11.0°
Sets 01:17:46 0° 12° (NNE) 3,761 8.8 -10.9°
